TimeEDT,TemperatureF,Dew PointF,Humidity,Sea Level PressureIn,VisibilityMPH,Wind Direction,Wind SpeedMPH,Gust SpeedMPH,PrecipitationIn,Events,Conditions,WindDirDegrees,DateUTC
12:53 AM,75.9,73.9,94,29.79,10.0,North,15.0,23.0,0.01,,Mostly Cloudy,10,2012-10-25 04:53:00
1:53 AM,78.1,73.9,87,29.77,10.0,NE,16.1,24.2,0.00,,Mostly Cloudy,50,2012-10-25 05:53:00
2:53 AM,79.0,71.1,77,29.73,10.0,ENE,17.3,21.9,N/A,,Clear,60,2012-10-25 06:53:00
3:53 AM,78.1,73.9,87,29.72,10.0,NNE,12.7,-,N/A,,Mostly Cloudy,20,2012-10-25 07:53:00
4:53 AM,78.1,73.9,87,29.72,10.0,NNE,12.7,19.6,N/A,,Clear,20,2012-10-25 08:53:00
5:53 AM,75.9,75.0,97,29.72,5.0,North,11.5,25.3,0.03,Rain,Rain,10,2012-10-25 09:53:00
6:28 AM,75.2,75.2,100,29.72,10.0,NNE,13.8,19.6,0.02,,Overcast,30,2012-10-25 10:28:00
6:53 AM,75.9,-9999,N/A,29.73,10.0,NNE,13.8,-,0.08,,Mostly Cloudy,30,2012-10-25 10:53:00
7:53 AM,75.9,-9999,N/A,29.73,10.0,NNE,12.7,18.4,0.00,,Scattered Clouds,20,2012-10-25 11:53:00
8:29 AM,75.2,-9999,N/A,29.74,10.0,NNE,9.2,-,0.01,Rain,Light Rain,20,2012-10-25 12:29:00
8:37 AM,75.2,-9999,N/A,29.74,10.0,North,13.8,19.6,0.01,,Mostly Cloudy,10,2012-10-25 12:37:00
8:53 AM,75.9,-9999,N/A,29.75,10.0,North,11.5,18.4,0.01,,Overcast,10,2012-10-25 12:53:00
9:25 AM,75.2,-9999,N/A,29.75,10.0,North,15.0,23.0,0.00,Rain,Light Rain,10,2012-10-25 13:25:00
9:43 AM,75.2,-9999,N/A,29.75,10.0,NNE,16.1,23.0,0.01,Rain,Light Rain,20,2012-10-25 13:43:00
9:53 AM,75.9,-9999,N/A,29.75,10.0,North,11.5,21.9,0.01,Rain,Light Rain,360,2012-10-25 13:53:00
10:04 AM,75.2,-9999,N/A,29.75,7.0,NNE,15.0,23.0,0.01,Rain,Light Rain,20,2012-10-25 14:04:00
10:37 AM,73.4,-9999,N/A,29.77,10.0,NE,25.3,36.8,0.01,Rain,Light Rain,50,2012-10-25 14:37:00
10:53 AM,75.0,-9999,N/A,29.76,10.0,NE,19.6,32.2,0.01,Rain,Light Rain,40,2012-10-25 14:53:00
11:53 AM,77.0,-9999,N/A,29.73,10.0,NNE,13.8,27.6,0.01,,Mostly Cloudy,20,2012-10-25 15:53:00
12:53 PM,80.1,70.0,71,29.71,10.0,NNE,13.8,25.3,N/A,,Mostly Cloudy,20,2012-10-25 16:53:00
1:53 PM,80.1,70.0,71,29.68,10.0,North,13.8,21.9,0.00,,Overcast,10,2012-10-25 17:53:00
2:36 PM,73.4,66.2,78,29.69,2.5,NE,29.9,43.7,0.01,Rain,Light Rain,40,2012-10-25 18:36:00
2:45 PM,71.6,66.2,83,29.68,1.5,NNE,25.3,47.2,0.05,Rain,Heavy Rain,30,2012-10-25 18:45:00
2:53 PM,72.0,66.0,81,29.67,2.0,NNE,16.1,36.8,0.07,Rain,Rain,20,2012-10-25 18:53:00
3:03 PM,73.4,66.2,78,29.66,6.0,NNE,19.6,29.9,0.00,Rain,Light Rain,20,2012-10-25 19:03:00
3:53 PM,77.0,66.9,71,29.65,10.0,NNE,17.3,29.9,0.01,Rain,Light Rain,20,2012-10-25 19:53:00
4:46 PM,73.4,68.0,83,29.66,1.8,NNE,19.6,41.4,0.03,Rain,Rain,30,2012-10-25 20:46:00
4:53 PM,73.9,68.0,82,29.65,2.5,NE,21.9,34.5,0.04,Rain,Light Rain,40,2012-10-25 20:53:00
5:00 PM,73.4,66.2,78,29.65,7.0,NE,21.9,32.2,0.00,Rain,Light Rain,40,2012-10-25 21:00:00
5:53 PM,77.0,68.0,74,29.67,9.0,NNE,16.1,24.2,0.00,Rain,Light Rain,30,2012-10-25 21:53:00
5:56 PM,75.2,68.0,78,29.69,1.5,NE,29.9,36.8,0.12,Rain,Light Rain,40,2012-10-25 21:56:00
6:15 PM,73.4,66.2,78,29.68,2.5,NNE,26.5,35.7,0.19,Rain,Rain,30,2012-10-25 22:15:00
6:48 PM,73.4,66.2,78,29.69,5.0,NNE,20.7,33.4,0.27,Rain,Rain,20,2012-10-25 22:48:00
6:53 PM,73.0,68.0,84,29.70,5.0,NNE,19.6,33.4,0.27,Rain,Rain,20,2012-10-25 22:53:00
7:53 PM,73.0,66.0,79,29.69,7.0,NNE,26.5,40.3,0.07,Rain,Light Rain,30,2012-10-25 23:53:00
8:53 PM,73.9,63.0,68,29.69,10.0,NNE,25.3,39.1,0.02,,Overcast,20,2012-10-26 00:53:00
9:53 PM,75.9,64.0,67,29.68,10.0,North,13.8,24.2,N/A,,Overcast,350,2012-10-26 01:53:00
10:53 PM,73.9,66.0,76,29.70,6.0,NNW,15.0,26.5,0.03,Rain,Light Rain,340,2012-10-26 02:53:00
11:53 PM,75.0,68.0,79,29.67,10.0,North,13.8,26.5,0.04,,Overcast,350,2012-10-26 03:53:00